This demonstration page uses our WeatherBlox Daily Observations layout. Learn more.

Left ArrowRight Arrow

47.50024, -111.30081

Hourly Observations for May 28, 2015

Temp ( °F °C ) Dew Point ( °F °C ) Humidity (%) Winds ( mph kmh ) Pressure ( in mb ) Visibility ( mi km ) Precip ( " mm )
12:53 am 00:53 Partly Cloudy 54 12.2 47 8.3 77 77 SSW 5 7 29.98 1015 10 16 0.00 0.00
1:53 am 01:53 Mostly Cloudy 49 9.4 46 7.8 90 90 SSW 6 9 29.97 1015 10 16 0.00 0.00
2:53 am 02:53 Cloudy 51 10.6 48 8.9 89 89 SW 8 13 29.97 1015 10 16 0.00 0.00
3:53 am 03:53 Cloudy 50 10 47 8.3 89 89 SW 7 11 29.97 1015 10 16 0.00 0.00
4:53 am 04:53 Cloudy 49 9.4 47 8.3 93 93 SW 7 11 29.97 1015 10 16 0.00 0.00
5:53 am 05:53 Partly Cloudy 50 10 47 8.3 89 89 WSW 7 11 29.98 1015 10 16 0.00 0.00
6:53 am 06:53 Cloudy 51 10.6 48 8.9 89 89 SW 6 9 30.00 1016 10 16 0.00 0.00
7:53 am 07:53 Mostly Cloudy 54 12.2 48 8.9 80 80 SW 7 11 30.00 1016 10 16 0.00 0.00
8:53 am 08:53 Cloudy 54 12.2 49 9.4 83 83 W 8 13 30.04 1017 10 16 0.00 0.00
9:53 am 09:53 Cloudy with Light Rain 53 11.7 48 8.9 83 83 NNW 13 20 30.08 1019 10 16 0.05 1.27
10:50 am 10:50 Cloudy with Rain 52 11 48 9 88 88 VRB 5 7 30.09 1019 3 4 0.00 0.00
10:53 am 10:53 Cloudy with Rain 51 10.6 49 9.4 92 92 NNE 5 7 30.11 1020 3 5 0.09 2.29
11:34 am 11:34 Cloudy with Light Rain 52 11 48 9 88 88 WNW 12 19 30.09 1019 10 16 0.00 0.00
11:53 am 11:53 Cloudy 54 12.2 51 10.6 90 90 WNW 14 22 30.10 1019 10 16 0.01 0.25
12:53 pm 12:53 Cloudy 56 13.3 52 11.1 87 87 NW 16 26 30.12 1020 10 16 0.00 0.00
1:53 pm 13:53 Cloudy 56 13.3 52 11.1 87 87 NW 15 24 30.15 1021 9 14 0.00 0.00
2:01 pm 14:01 Cloudy 56 13.3 51 10.6 84 84 NW 18 30 30.09 1019 10 16 0.00 0.00
2:08 pm 14:08 Cloudy 55 13 52 11 88 88 NW 18 30 30.09 1019 10 16 0.00 0.00
2:53 pm 14:53 Mostly Cloudy 57 13.9 51 10.6 81 81 NNW 16 26 30.16 1021 10 16 0.00 0.00
3:42 pm 15:42 Cloudy 55 13 52 11 88 88 NNW 16 26 30.09 1019 8 13 0.00 0.00
3:53 pm 15:53 Cloudy with Mist and Fog 55 12.8 51 10.6 87 87 NNW 18 30 30.18 1022 6 10 0.00 0.03
4:11 pm 16:11 Cloudy with Mist and Fog 53 11.7 50 10 89 89 NNW 21 33 30.09 1019 3 5 0.00 0.00
4:17 pm 16:17 Cloudy with Mist and Fog 52 11.1 50 10 93 93 N 23 37 30.12 1020 1 2 0.00 0.00
4:29 pm 16:29 Cloudy with Mist and Fog 51 10.6 50 10 96 96 NNW 22 35 30.12 1020 1 1 0.00 0.00
4:36 pm 16:36 Cloudy with Fog 50 10 48 9 94 94 NNW 21 33 30.18 1022 0 0 0.00 0.00
4:53 pm 16:53 Cloudy with Mist and Fog 50 10 49 9.4 96 96 NNW 21 33 30.22 1024 0 0 0.00 0.00
5:03 pm 17:03 Cloudy with Mist and Fog 50 10 48 9 94 94 NNW 18 30 30.18 1022 1 2 0.00 0.00
5:27 pm 17:27 Cloudy with Light Rain 50 10 48 8.9 93 93 NNW 16 26 30.18 1022 3 4 0.01 0.25
5:34 pm 17:34 Cloudy with Light Rain 50 10 48 8.9 93 93 NNW 14 22 30.18 1022 3 5 0.01 0.25
5:53 pm 17:53 Cloudy with Light Rain 50 10 48 8.9 93 93 NNW 14 22 30.24 1024 6 10 0.02 0.51
6:53 pm 18:53 Cloudy 49 9.4 48 8.9 97 97 NNW 14 22 30.26 1025 10 16 0.01 0.25
7:39 pm 19:39 Cloudy 48 8.9 46 7.8 93 93 N 15 24 30.24 1024 9 14 0.00 0.03
7:53 pm 19:53 Cloudy 48 8.9 46 7.8 93 93 N 13 20 30.29 1026 10 16 0.00 0.03
8:09 pm 20:09 Cloudy with Light Rain 48 8.9 46 7.8 93 93 N 14 22 30.24 1024 9 14 0.00 0.03
8:34 pm 20:34 Cloudy with Light Rain 46 8 46 8 100 100 N 14 22 30.27 1025 3 4 0.00 0.00
8:53 pm 20:53 Cloudy with Light Rain 47 8.3 45 7.2 93 93 N 16 26 30.30 1026 4 6 0.03 0.76
9:27 pm 21:27 Cloudy with Light Rain 46 7.8 45 7.2 96 96 N 14 22 30.30 1026 3 5 0.01 0.25
9:53 pm 21:53 Cloudy with Light Rain 46 7.8 45 7.2 96 96 N 14 22 30.33 1027 3 5 0.02 0.51
10:53 pm 22:53 Cloudy with Light Rain 45 7.2 44 6.7 97 97 NNW 10 17 30.37 1028 3 5 0.00 0.03
11:15 pm 23:15 Cloudy with Light Rain 45 7.2 44 6.7 97 97 NNW 10 17 30.36 1028 3 4 0.01 0.25
11:44 pm 23:44 Cloudy with Mist and Fog 45 7 45 7 100 100 NNW 8 13 30.36 1028 3 5 0.00 0.00
11:53 pm 23:53 Cloudy with Mist and Fog 45 7.2 44 6.7 97 97 N 5 7 30.35 1028 3 4 0.02 0.51

Powered by AerisWeather